Vorticity
nan nan nan nan nan nan nan nan nan nan nan nan nan nan nan nan nan nan nan nan nan nan nan nan nan nan nan nan nan nan nan nan nan nan nan nan nan nan nan nan nan nan nan
nan 10 8 5 5 3 4 4 5 5 5 5 6 6 6 5 5 6 6 5 5 5 4 4 4 4 5 6 7 6 5 5 6 5 5 2 8 10 6 6 5 7 nan
nan 8 7 7 5 4 5 5 5 6 5 5 5 5 6 5 6 6 6 5 5 5 5 4 4 4 5 5 6 5 5 4 3 5 1 0 6 9 8 6 6 7 nan
nan 5 9 8 5 5 5 5 5 5 5 5 5 5 6 6 5 6 6 6 6 6 5 5 5 5 5 5 5 5 5 5 5 3 0 7 7 6 7 6 6 6 nan
nan 7 11 7 6 6 5 4 5 5 5 5 6 6 5 5 6 6 6 6 6 7 6 6 6 6 5 6 5 6 5 6 11 6 4 7 6 7 6 7 6 5 nan
nan 8 10 7 5 5 5 6 4 5 5 4 5 6 6 5 6 6 6 6 6 6 7 8 8 8 7 6 6 6 7 10 6 6 7 6 9 9 6 5 5 6 nan
nan 7 7 8 5 5 4 5 6 5 5 5 5 5 6 6 6 6 6 6 5 6 6 6 7 8 8 7 6 6 10 8 1 6 7 6 11 9 6 6 6 6 nan
nan 6 8 7 5 5 5 4 5 5 5 5 5 4 5 6 6 5 5 6 6 5 5 5 5 6 6 8 7 8 13 7 3 5 6 8 11 8 6 6 6 7 nan
nan 6 6 6 7 4 3 5 5 5 5 4 4 5 5 5 6 5 4 4 5 5 5 4 4 3 4 6 6 9 13 6 2 7 5 7 10 7 6 6 7 6 nan
nan 5 5 6 5 5 8 7 4 4 4 4 4 4 5 4 5 4 3 4 5 4 4 5 4 5 4 3 5 10 13 1 2 6 6 11 9 7 6 5 5 6 nan
nan 6 5 6 6 7 8 7 6 4 4 3 4 2 1 3 6 6 5 5 4 3 4 5 7 7 6 6 5 4 5 5 7 6 9 11 7 6 5 6 6 5 nan
nan 5 5 5 6 6 6 6 5 4 4 5 5 4 4 6 6 7 8 6 4 4 3 5 7 10 8 6 6 6 4 7 6 7 10 10 7 5 5 6 7 7 nan
nan 5 6 5 6 5 6 5 6 7 7 8 7 6 6 5 6 8 9 7 5 7 6 6 7 8 8 9 9 10 7 6 6 8 10 8 8 5 5 5 6 7 nan
nan 6 5 6 5 4 6 7 7 7 7 8 8 6 7 7 8 7 7 7 6 7 6 5 5 7 8 9 13 15 8 7 8 9 10 9 7 6 5 5 5 4 nan
nan 6 6 5 5 6 5 5 7 8 8 8 7 7 6 7 7 7 7 7 7 6 6 7 6 8 7 9 14 13 7 8 8 7 12 11 7 7 6 5 6 6 nan
nan 6 6 5 5 5 4 6 6 7 7 8 8 9 6 6 8 8 8 7 8 7 6 8 7 7 9 4 11 9 6 7 8 8 8 10 10 8 8 5 6 5 nan
nan 8 6 6 6 6 4 5 7 8 10 8 9 8 7 7 9 9 8 7 8 7 7 8 7 7 8 7 9 9 8 8 8 7 7 8 11 10 8 8 6 5 nan
nan 8 6 6 8 5 5 6 7 9 11 9 9 9 9 8 7 8 8 8 8 8 9 7 8 6 7 9 6 11 8 7 8 8 7 7 7 11 11 9 8 7 nan
nan 10 8 6 7 5 5 8 9 7 7 9 8 9 9 8 7 8 8 9 8 8 10 7 9 9 8 9 10 9 9 9 7 8 9 8 7 7 10 11 9 8 nan
nan 12 6 7 8 5 5 7 7 7 7 10 9 9 8 7 7 7 8 7 8 9 7 8 7 10 11 9 10 6 10 12 8 9 8 8 9 8 8 8 8 10 nan
nan 12 8 5 5 4 5 7 8 8 6 9 11 9 8 7 7 6 8 8 7 8 8 7 7 7 8 9 7 8 9 10 11 9 7 8 8 8 8 7 7 8 nan
nan 9 9 6 4 4 5 5 8 9 9 8 10 10 9 7 7 7 8 8 7 7 9 7 7 7 8 9 7 8 6 6 11 11 10 9 8 7 8 8 8 8 nan
nan 9 8 8 5 5 3 2 5 6 8 9 9 11 10 10 7 7 7 8 7 8 7 8 8 8 7 8 10 8 7 9 6 8 11 12 9 6 8 8 8 8 nan
nan 8 9 8 6 6 6 7 6 4 5 7 8 10 11 9 7 7 7 7 7 8 8 8 7 6 8 8 6 9 11 11 6 7 9 10 10 10 7 8 9 9 nan
nan 8 8 10 7 7 6 6 5 5 6 8 10 10 9 9 9 7 7 8 7 8 9 8 7 7 6 8 8 7 7 8 9 10 8 6 9 10 11 10 8 8 nan
nan nan nan nan nan nan nan nan nan nan nan nan nan nan nan nan nan nan nan nan nan nan nan nan nan nan nan nan nan nan nan nan nan nan nan nan nan nan nan nan nan nan nan
CAPE
37 275 1278 1722 1856 1712 1756 1690 2213 2039 2220 2571 2401 2234 2093 2083 2215 2454 2420 1931 1706 1834 1581 1697 1824 1662 1325 992 924 1470 1175 951 1549 1724 1871 1978 1865 2030 2166 2266 2091 1595 2114
5 364 1394 1973 2008 1702 2028 1972 2027 2147 2261 2125 2361 2139 1932 1907 1913 2140 2191 1837 1771 1738 1638 1765 1738 1609 1512 1402 1090 1328 1500 1634 1661 1121 1788 1897 1950 1826 1968 2075 1815 1862 2094
102 676 1266 1981 2083 1973 2130 2091 1969 2003 1956 2107 2131 2057 2090 2101 2138 2133 2063 1959 1727 1773 1814 1738 1537 1381 1490 1167 1353 1281 1382 1523 1724 1032 1740 1014 1150 1599 1736 2140 1944 1936 1889
187 453 1128 1965 2333 2225 2186 2172 2117 1619 1783 2226 2121 2079 2080 1950 1914 1871 2012 1768 1798 1789 1684 1649 1563 1544 1445 1319 1240 1219 1220 1009 1082 844 442 612 806 1862 1932 1875 1907 1863 1875
148 550 1082 2120 2409 2311 2133 1984 2108 1751 1866 1878 2046 1987 1897 1954 2004 1952 1775 1687 1694 1566 1446 1401 1309 1281 1276 1203 1131 993 1154 1231 1267 874 123 482 850 1469 1713 1905 1780 1782 1790
179 508 1760 1958 1862 2076 1811 2078 1913 1866 1989 1856 1969 1874 1759 1800 1937 1728 1788 1687 1636 1708 1554 1414 1309 1168 1202 1223 1173 1208 1266 1404 1031 495 794 1263 1021 1790 1841 1693 1562 1719 1580
248 991 1392 2291 2455 2122 1769 1891 1863 1941 2015 2010 2112 2060 2142 1916 1804 1827 1828 1803 1888 1846 1739 1659 1575 1424 1369 1239 1172 1432 1354 1405 543 775 788 1082 1519 1994 1420 1092 1771 1714 1598
610 1008 1584 2139 2333 2253 1730 1913 1855 2123 1896 2174 2053 1859 2068 2270 1854 1812 1794 1744 1640 1609 1498 1315 1459 1414 980 1280 1091 1391 1660 1358 921 1009 1114 1444 2089 2165 1525 1261 1479 1673 1722
715 1090 1356 1421 1505 1695 2067 1868 1655 1803 1909 1972 2003 1973 1964 1913 1916 1781 1861 1773 1557 1494 1442 1382 1326 1312 1288 1077 996 1159 1754 1348 694 886 1341 1481 2383 1863 1854 1822 1672 1691 1711
653 1197 1286 1211 1072 1431 1545 1667 1676 1787 1775 1744 1692 1627 1558 1624 1652 1690 1907 2205 1403 1269 1202 1213 1219 1552 1557 1418 1283 1207 1590 1522 658 942 1198 1636 2430 2068 1870 1491 1635 1707 1567
938 1166 1253 922 990 1096 1155 1237 1412 1659 1650 1572 1487 1531 1366 734 842 1239 1448 1793 1355 1135 1070 1162 1276 1561 1491 1461 1598 1293 1330 296 460 795 1120 2183 2092 1649 1462 1652 1598 1508 1510
717 1023 948 724 720 856 1291 959 773 948 954 984 799 162 62 89 197 807 1460 1595 1368 1184 1356 1894 1639 1264 1355 267 264 1518 679 192 335 605 1257 2327 1825 1576 1215 1669 1847 1798 1486
600 806 557 500 549 718 825 610 557 643 691 617 34 0 0 163 438 879 801 1137 604 271 257 219 398 651 739 380 319 523 891 699 381 430 1486 2244 2062 1461 1248 735 1652 1773 1733
437 501 295 423 531 138 485 456 466 460 408 419 0 0 20 190 477 621 388 434 494 205 432 536 606 694 609 74 45 94 874 323 114 508 1492 2120 1975 1678 1548 1124 568 1206 1390
161 187 188 427 346 54 138 109 342 271 286 429 0 0 107 97 349 504 675 459 459 307 54 1 510 286 160 40 34 577 222 86 63 545 1053 1968 2341 2057 1568 1550 1218 728 686
61 85 99 335 218 134 23 0 29 14 74 303 34 0 177 0 327 676 653 370 391 273 16 0 239 11 19 43 53 243 45 35 56 294 552 1200 1958 2077 1946 1446 1573 1460 1384
12 36 52 165 175 143 22 0 0 0 34 306 319 280 171 386 572 546 490 188 151 124 41 154 140 16 44 55 59 14 42 41 36 113 549 587 1289 2043 2057 1961 1726 1625 1389
9 16 0 184 317 76 52 105 240 1 0 246 478 456 369 350 815 645 294 362 439 280 455 412 247 246 141 141 41 35 34 37 31 52 128 376 506 470 1899 2108 2069 2034 1592
34 0 0 59 472 12 324 297 349 173 122 152 264 379 694 936 1016 782 646 333 131 333 346 362 283 602 105 108 138 18 20 18 49 33 31 26 88 246 1048 1560 1691 1383 1431
28 0 15 0 320 118 326 211 147 116 114 440 613 251 468 690 1198 931 471 679 482 85 542 575 91 0 0 1 14 10 4 9 23 21 28 22 30 147 450 749 698 722 1230
48 39 14 0 168 274 401 274 72 53 19 195 285 288 299 674 1074 1059 946 670 237 215 644 117 34 6 0 0 0 0 0 0 2 9 42 20 2 42 156 332 301 455 567
80 65 31 9 10 392 242 340 88 3 18 147 33 313 319 788 1079 1093 973 619 721 384 502 292 410 16 0 0 7 0 0 0 0 0 6 20 8 14 48 123 70 61 307
107 93 59 45 0 142 275 174 400 403 237 278 61 660 480 932 1275 1353 796 774 793 709 712 609 576 66 0 0 3 0 0 0 0 0 0 0 0 0 9 36 28 33 80
155 49 179 167 88 57 344 176 419 447 628 419 195 189 783 1018 1281 1181 1054 1002 870 672 835 710 758 329 0 0 0 2 1 0 0 0 0 0 0 0 0 54 54 23 5
138 140 187 435 243 173 559 278 260 343 463 338 108 53 682 837 1258 1097 947 908 800 770 352 551 995 622 124 1 0 0 0 0 0 0 0 0 0 0 0 0 22 15 0
204 210 261 655 399 325 647 510 392 324 325 296 198 71 313 764 784 1185 1172 942 785 1093 749 257 420 937 539 221 0 0 0 0 0 0 0 0 0 0 0 0 0 4 0